Location: Wilhelmshaven
(53.5279°N, 8.1063°E)
Time: 22:23:15
(UTC+02:00)

ISS - Pass Details

Date: 14 July 2022
Orbit: 412 x 420 km, 51.6° (Epoch: 19 August)

Event Time Altitude Azimuth Distance (km) Brightness Sun altitude
Rises 02:26:52 0° 274° (W) 2,359 0.0 -13.9°
Reaches altitude 10° 02:28:59 10° 269° (W) 1,497 -1.1 -13.8°
Maximum altitude 02:32:17 54° 191° (SSW) 516 -3.7 -13.7°
Drops below altitude 10° 02:35:34 10° 114° (ESE) 1,500 -1.0 -13.6°
Sets 02:37:41 0° 110° (ESE) 2,364 0.0 -13.5°
